[[{"header":{"parameterUnit":"m.s-1","parameterCategory":2,"la1":30.2991,"la2":30.254,"lo1":-89.0895,"lo2":-89.0444,"dy":0.0017,"dx":0.0017,"nx":28,"ny":28,"refTime":"2023-08-14T03:00:00:Z","depth":"0","parameterNumber":2,"parameterNumberName":"U-component_of_CURRENTS"},"data":[0,0,0,0,0,0,0,0,0,0,0,0,0,0,0,0,0,0,0,0,0,0,0,0,0,0,0,0,0,0,0,0,0,0,0,0,0,0,0,0,0,0,0,0,0,0,0,0,0,0,0,0,0,0,0,0,0,0,0.5294,0.5296,0,0.5418,0.5419,0.542,0.5397,0.5395,0.5393,0.5391,0.5443,0.5446,0.5449,0,0,0,0,0,0,0,0,0,0,0,0,0,0.5053,0.5057,0.5294,0.5296,0.5298,0.5418,0.5419,0.542,0.5397,0.5395,0.5393,0.539,0.5442,0.5446,0.5449,0,0,0,0,0,0,0,0,0,0,0,0,0,0.5161,0.5058,0.5294,0.5304,0.5307,0.5418,0.5419,0.5421,0.5397,0.5395,0.5392,0.5389,0.5441,0.5445,0.545,0.5533,0,0,0.5464,0.5466,0,0,0,0,0,0,0,0,0.5155,0.5169,0.5301,0.5304,0.5307,0.5393,0.5353,0.5456,0.5398,0.5358,0.5391,0.5388,0.5425,0.543,0.5454,0.5535,0.5537,0.5464,0.5467,0.5469,0.547,0,0,0,0,0,0,0,0.5147,0.5164,0.5338,0.5303,0.5307,0.5308,0.532,0.5373,0.54,0.5361,0.5361,0.5383,0.5425,0.545,0.5455,0.5538,0.5464,0.5468,0.5471,0.5473,0.568,0.5682,0,0,0,0,0,0,0.5145,0.5158,0.5335,0.5343,0.5228,0.5315,0.5328,0.5364,0.5401,0.5406,0.5385,0.5382,0.5443,0.545,0.5457,0.5558,0.5469,0.5473,0.5476,0.5677,0.568,0.5683,0,0,0,0,0,0,0.5139,0.516,0.533,0.5255,0.5277,0.5323,0.5363,0.5368,0.5389,0.5421,0.5423,0.54,0.5442,0.545,0.5508,0.556,0.5475,0.548,0.5674,0.5678,0.5682,0.576,0,0,0,0,0,0,0.5132,0.5158,0.5192,0.5256,0.5282,0.5411,0.5367,0.5373,0.541,0.5405,0.5436,0.5438,0.544,0.5502,0.5513,0.5564,0.5483,0.567,0.5676,0.568,0.5754,0.5767,0.5777,0,0,0,0,0,0.5123,0.5204,0.5194,0.5216,0.5325,0.5414,0.5428,0.5446,0.5413,0.5448,0.5455,0.5436,0.5542,0.5508,0.5521,0.5574,0.5668,0.5674,0.568,0.5749,0.5764,0.5777,0,0,0,0,0,0,0.5148,0.5212,0.5201,0.5303,0.5351,0.5412,0.5464,0.5456,0.5492,0.5483,0.5478,0.5484,0.5569,0.556,0.5522,0.565,0.5601,0.561,0.5649,0.5664,0.5675,0.5682,0.5487,0,0,0,0,0,0.5163,0.5218,0.5276,0.5356,0.5384,0.5415,0.5453,0.5462,0.5501,0.5513,0.553,0.5554,0.5611,0.5621,0.568,0.574,0.5777,0.5781,0.5793,0.5802,0.5818,0.5926,0.5949,0.5703,0.5703,0.5703,0,0,0.5195,0.5239,0.5271,0.5361,0.5398,0.5445,0.5431,0.5505,0.5533,0.5517,0.557,0.5617,0.5645,0.5726,0.5758,0.5713,0.5896,0.581,0.5818,0.5828,0.5935,0.5959,0.5981,0.5708,0.5707,0.5706,0,0,0.5258,0.5324,0.5362,0.5408,0.547,0.55,0.5516,0.5576,0.5594,0.5655,0.5663,0.574,0.5788,0.584,0.5862,0.5974,0.5976,0.5975,0.6013,0.6119,0.614,0.6159,0.6249,0.6275,0.5951,0.5951,0.5951,0,0.5279,0.5335,0.5394,0.5436,0.5467,0.5515,0.5545,0.5601,0.5666,0.5686,0.5677,0.5804,0.5853,0.5943,0.5992,0.6005,0.6046,0.5954,0.6134,0.6154,0.6172,0.626,0.6288,0.5956,0.5955,0.5955,0.5954,0,0.5337,0.5387,0.5432,0.5474,0.5528,0.5587,0.5646,0.57,0.5719,0.5754,0.5859,0.5938,0.5997,0.6041,0.6055,0.6201,0.6186,0.616,0.6096,0.6201,0.6287,0.6315,0.5962,0.5961,0.5959,0.5958,0,0,0.5344,0.5439,0.5447,0.545,0.5544,0.5587,0.5665,0.5733,0.5762,0.5856,0.5897,0.6057,0.6094,0.6127,0.617,0.6269,0.6468,0.6265,0.6269,0.635,0.6693,0.6516,0.6528,0.646,0.6465,0.6469,0.6705,0,0.5344,0.5402,0.5455,0.5503,0.553,0.5601,0.5654,0.5731,0.5801,0.5873,0.5983,0.6061,0.6122,0.6155,0.6282,0.6428,0.6542,0.6406,0.6583,0.6589,0.6414,0.6555,0.6238,0.6406,0.6732,0.6737,0.674,0,0.5336,0.538,0.5413,0.5473,0.5489,0.5523,0.5599,0.5665,0.5797,0.5844,0.5959,0.604,0.6235,0.6247,0.6566,0.6467,0.6603,0.6706,0.6716,0.654,0.6462,0.6353,0.6444,0.6251,0.6783,0.678,0.6777,0,0.5251,0.5336,0.5347,0.5375,0.5464,0.5476,0.5529,0.5644,0.5688,0.5835,0.5876,0.609,0.6192,0.6415,0.6648,0.6623,0.6963,0.6944,0.6914,0.6902,0.6663,0.6619,0.6579,0.7173,0.7172,0.7171,0.7171,0,0.5208,0.5217,0.5302,0.5308,0.5319,0.5406,0.5432,0.5514,0.5621,0.5681,0.5856,0.5943,0.6242,0.6451,0.6665,0.6871,0.6987,0.6963,0.6964,0.6679,0.6636,0.6477,0.6377,0.718,0.7178,0.7177,0.7175,0,0.5102,0.5163,0.5173,0.525,0.5269,0.5277,0.5351,0.5383,0.5498,0.5586,0.5628,0.5874,0.6149,0.6413,0.6775,0.6857,0.6881,0.7116,0.6747,0.6698,0.6436,0.6352,0.621,0.605,0.7138,0.7135,0.7133,0,0.505,0.5044,0.5104,0.5111,0.5137,0.5168,0.5187,0.5299,0.5347,0.5544,0.5584,0.5839,0.6006,0.6428,0.6625,0.6911,0.6776,0.6742,0.6642,0.6398,0.6311,0.615,0.6015,0.6387,0.6379,0.6372,0.6367,0,0.4949,0.4962,0.4985,0.4993,0.5004,0.5017,0.5066,0.5078,0.5226,0.5299,0.5447,0.5587,0.5937,0.6062,0.6358,0.6508,0.6352,0.6607,0.6466,0.581,0.5526,0.5374,0.626,0.6306,0.6312,0.6317,0.632,0.6322,0.4866,0.4852,0.4873,0.4873,0.4876,0.4856,0.482,0.4895,0.4931,0.5019,0.5255,0.5367,0.5555,0.5922,0.6008,0.5875,0.5979,0.5764,0.5724,0.562,0.5303,0.6035,0.5989,0.5993,0.5997,0.6,0.6003,0,0.4765,0.4767,0.4759,0.4728,0.4667,0.4721,0.4723,0.4668,0.4659,0.4809,0.4916,0.4986,0.5057,0.5195,0.5183,0.5034,0.4905,0.4907,0.4619,0.4568,0.5323,0.512,0.4742,0.4742,0.4742,0.4743,0.4743,0.4743,0.4713,0.4674,0.467,0.4539,0.4504,0.4377,0.4351,0.4298,0.4349,0.429,0.4281,0.4396,0.4545,0.4575,0.4412,0.4338,0.4066,0.3869,0.3955,0.4467,0.4544,0.4617,0.4405,0.3883,0.3882,0.3029,0.3021,0.3016]},{"header":{"parameterUnit":"m.s-1","parameterCategory":2,"la1":30.2991,"la2":30.254,"lo1":-89.0895,"lo2":-89.0444,"dy":0.0017,"dx":0.0017,"nx":28,"ny":28,"refTime":"2023-08-14T03:00:00:Z","depth":"0","parameterNumber":3,"parameterNumberName":"V-component_of_CURRENTS"},"data":[0,0,0,0,0,0,0,0,0,0,0,0,0,0,0,0,0,0,0,0,0,0,0,0,0,0,0,0,0,0,0,0,0,0,0,0,0,0,0,0,0,0,0,0,0,0,0,0,0,0,0,0,0,0,0,0,0,0,0.0678,0.0679,0,0.0747,0.0748,0.0748,0.0708,0.0706,0.0704,0.0703,0.0622,0.0622,0.0621,0,0,0,0,0,0,0,0,0,0,0,0,0,0.0596,0.0597,0.0678,0.0679,0.068,0.0747,0.0748,0.0749,0.0708,0.0706,0.0704,0.0702,0.0622,0.0622,0.0621,0,0,0,0,0,0,0,0,0,0,0,0,0,0.0643,0.0597,0.0678,0.0669,0.0669,0.0747,0.0748,0.0749,0.0709,0.0706,0.0703,0.0701,0.0622,0.0622,0.0621,0.0672,0,0,0.0619,0.0619,0,0,0,0,0,0,0,0,0.0641,0.0646,0.0669,0.067,0.067,0.0717,0.069,0.0716,0.071,0.0692,0.0703,0.07,0.0643,0.0641,0.066,0.0668,0.0664,0.0619,0.0618,0.0618,0.0618,0,0,0,0,0,0,0,0.0637,0.0644,0.0704,0.0671,0.0671,0.0691,0.0694,0.0695,0.0678,0.0694,0.0691,0.0702,0.0641,0.0661,0.0657,0.0663,0.0619,0.0618,0.0618,0.0618,0.0701,0.0703,0,0,0,0,0,0,0.0631,0.064,0.0701,0.0706,0.065,0.0694,0.0697,0.0704,0.0681,0.0677,0.0704,0.07,0.0663,0.0658,0.0654,0.0738,0.0618,0.0618,0.0617,0.0698,0.0701,0.0704,0,0,0,0,0,0,0.0629,0.0635,0.0699,0.0676,0.0685,0.0698,0.0706,0.0707,0.0729,0.0692,0.0683,0.0725,0.0661,0.0655,0.0675,0.0733,0.0617,0.0617,0.0695,0.0699,0.0703,0.089,0,0,0,0,0,0,0.0626,0.0634,0.0657,0.0675,0.0686,0.0768,0.0709,0.071,0.074,0.0735,0.0707,0.0697,0.0658,0.0676,0.0674,0.073,0.0616,0.0692,0.0697,0.0701,0.088,0.09,0.0916,0,0,0,0,0,0.0623,0.069,0.0657,0.0666,0.071,0.0771,0.0781,0.0778,0.0744,0.0782,0.0755,0.0698,0.0704,0.0679,0.0675,0.0732,0.0689,0.0695,0.0701,0.0872,0.0896,0.0916,0,0,0,0,0,0,0.0708,0.0693,0.0657,0.0724,0.0743,0.0765,0.0818,0.0796,0.081,0.0799,0.0741,0.0732,0.0768,0.0728,0.07,0.0768,0.0684,0.069,0.0816,0.0838,0.0855,0.0895,0.0615,0,0,0,0,0,0.0723,0.0748,0.0741,0.0802,0.081,0.0807,0.0836,0.0826,0.0835,0.0838,0.0818,0.0795,0.0795,0.0796,0.0788,0.0836,0.08,0.0866,0.0884,0.09,0.0929,0.094,0.0962,0.0723,0.0723,0.0723,0,0,0.0779,0.0775,0.0793,0.0818,0.0831,0.0879,0.0819,0.0877,0.0922,0.0828,0.0893,0.086,0.082,0.0872,0.0884,0.0844,0.0946,0.0907,0.0921,0.0942,0.0949,0.0972,0.0993,0.0727,0.0726,0.0726,0,0,0.0894,0.0889,0.0929,0.0946,0.0963,0.0966,0.0981,0.0998,0.1011,0.106,0.1003,0.102,0.1014,0.1019,0.1011,0.1128,0.1039,0.1103,0.1234,0.1245,0.1265,0.1283,0.1258,0.1271,0.1115,0.1116,0.1116,0,0.0954,0.0993,0.0965,0.1008,0.1042,0.1005,0.1068,0.1095,0.112,0.1148,0.11,0.113,0.1097,0.1167,0.1205,0.1174,0.114,0.1157,0.1271,0.1287,0.1302,0.1271,0.1284,0.1125,0.1124,0.1123,0.1122,0,0.1069,0.111,0.1156,0.117,0.1213,0.1276,0.1282,0.1326,0.1319,0.1331,0.1394,0.1363,0.1376,0.1371,0.1325,0.1417,0.1345,0.1291,0.1221,0.1338,0.1297,0.1307,0.1139,0.1136,0.1133,0.1131,0,0,0.1167,0.1215,0.1229,0.1251,0.1296,0.1341,0.1434,0.15,0.1557,0.1576,0.1657,0.1675,0.164,0.1631,0.1577,0.1596,0.1666,0.1497,0.1493,0.1481,0.1662,0.1515,0.1509,0.1621,0.1624,0.1627,0.1589,0,0.1256,0.1347,0.1362,0.1475,0.1519,0.1532,0.1624,0.168,0.1709,0.1781,0.1775,0.1816,0.1743,0.1743,0.1764,0.1694,0.1702,0.168,0.1543,0.1539,0.1402,0.1521,0.1399,0.1346,0.1597,0.1599,0.16,0,0.134,0.1389,0.1494,0.1589,0.1614,0.1682,0.1794,0.1869,0.1958,0.1981,0.203,0.2002,0.2061,0.1953,0.1938,0.1919,0.1816,0.1749,0.1745,0.1554,0.1412,0.1271,0.1353,0.1061,0.1614,0.1613,0.1612,0,0.137,0.1484,0.1563,0.1595,0.1698,0.1763,0.1829,0.1928,0.2007,0.2099,0.2152,0.2193,0.221,0.2139,0.2019,0.1974,0.1967,0.1876,0.1647,0.1633,0.1478,0.1445,0.1272,0.1854,0.1854,0.1855,0.1855,0,0.1438,0.1506,0.1577,0.1618,0.1738,0.1798,0.193,0.2001,0.2119,0.2235,0.2244,0.2336,0.2256,0.2235,0.2095,0.1922,0.2026,0.1703,0.1634,0.1535,0.1509,0.1201,0.1084,0.1853,0.1853,0.1854,0.1854,0,0.1451,0.1499,0.1587,0.1698,0.1744,0.182,0.1978,0.2076,0.2176,0.2326,0.2363,0.2459,0.2446,0.2329,0.2217,0.2006,0.1672,0.175,0.1623,0.1539,0.1001,0.0901,0.0695,0.0589,0.1485,0.1482,0.1479,0,0.1464,0.1502,0.1615,0.1675,0.1727,0.1848,0.195,0.2086,0.2204,0.241,0.25,0.2545,0.2627,0.2409,0.2066,0.1791,0.1576,0.1414,0.1305,0.0983,0.0822,0.0755,0.0679,0.117,0.1165,0.116,0.1157,0,0.148,0.1503,0.157,0.168,0.1784,0.1922,0.2078,0.2184,0.2369,0.2528,0.2749,0.284,0.2625,0.234,0.1905,0.1659,0.1169,0.1308,0.1033,0.0621,0.0486,0.0346,0.1159,0.1118,0.1122,0.1125,0.1127,0.1129,0.1473,0.1512,0.1583,0.1696,0.1823,0.1994,0.2122,0.232,0.2544,0.2839,0.2918,0.31,0.2571,0.1994,0.1623,0.0751,0.0883,0.0464,0.0389,0.0364,0.0205,0.0911,0.0749,0.0751,0.0752,0.0754,0.0755,0,0.145,0.1507,0.1604,0.1748,0.1884,0.1963,0.2214,0.2383,0.2666,0.2968,0.3199,0.297,0.2308,0.1621,0.0479,-0.0068,-0.021,-0.0356,-0.0474,-0.0489,0.0168,0.009,-0.0293,-0.0292,-0.0292,-0.0292,-0.0291,-0.0291,0.144,0.1502,0.1559,0.1761,0.1884,0.2095,0.2245,0.2533,0.2795,0.3122,0.3212,0.3258,0.2562,0.0682,-0.0634,-0.0897,-0.1142,-0.1255,-0.1313,-0.0907,-0.0836,-0.0768,-0.0873,-0.145,-0.1451,-0.1962,-0.1968,-0.1972]}],[{"header":{"parameterUnit":"m.s-1","parameterCategory":2,"la1":30.2991,"la2":30.254,"lo1":-89.0895,"lo2":-89.0444,"dy":0.0017,"dx":0.0017,"nx":28,"ny":28,"refTime":"2023-08-14T03:00:00:Z","depth":"2","parameterNumber":2,"parameterNumberName":"U-component_of_CURRENTS"},"data":[0,0,0,0,0,0,0,0,0,0,0,0,0,0,0,0,0,0,0,0,0,0,0,0,0,0,0,0,0,0,0,0,0,0,0,0,0,0,0,0,0,0,0,0,0,0,0,0,0,0,0,0,0,0,0,0,0,0,0.3311,0.3308,0,0.3389,0.3393,0.3398,0.365,0.3652,0.3654,0.3656,0.396,0.3966,0.3972,0,0,0,0,0,0,0,0,0,0,0,0,0,0.3465,0.3464,0.3311,0.3308,0.3305,0.3389,0.3394,0.3399,0.365,0.3652,0.3654,0.3656,0.3958,0.3965,0.3973,0,0,0,0,0,0,0,0,0,0,0,0,0,0.3495,0.3463,0.3311,0.3411,0.3418,0.3388,0.3394,0.34,0.3649,0.3652,0.3655,0.3657,0.3955,0.3964,0.3974,0.3976,0,0,0.4003,0.4007,0,0,0,0,0,0,0,0,0.3493,0.3494,0.3399,0.3403,0.341,0.3477,0.3557,0.359,0.3648,0.3604,0.3656,0.3659,0.379,0.3814,0.3877,0.399,0.4003,0.4004,0.4009,0.4014,0.4016,0,0,0,0,0,0,0,0.349,0.3492,0.3384,0.3395,0.3401,0.3477,0.3489,0.3568,0.3716,0.3608,0.3617,0.356,0.3802,0.3867,0.3886,0.4008,0.4003,0.4012,0.4018,0.4021,0.4411,0.4415,0,0,0,0,0,0,0.339,0.3489,0.338,0.3382,0.3413,0.3469,0.3484,0.3486,0.3711,0.3734,0.3557,0.357,0.385,0.3874,0.3897,0.4039,0.4013,0.4022,0.4028,0.4406,0.4412,0.4417,0,0,0,0,0,0,0.3395,0.3383,0.3376,0.3402,0.3401,0.3459,0.3462,0.3485,0.3653,0.3661,0.3699,0.3706,0.3853,0.3884,0.4085,0.4048,0.4027,0.4035,0.4401,0.4408,0.4414,0.4241,0,0,0,0,0,0,0.34,0.3386,0.3451,0.3396,0.3394,0.3421,0.3456,0.3483,0.3585,0.361,0.3799,0.3824,0.3858,0.4071,0.4094,0.406,0.4043,0.4395,0.4404,0.4412,0.424,0.4241,0.4241,0,0,0,0,0,0.3407,0.3377,0.3456,0.3444,0.3452,0.3418,0.3435,0.3509,0.3591,0.368,0.3832,0.3824,0.4141,0.4084,0.411,0.4077,0.4391,0.4401,0.4412,0.424,0.4241,0.4241,0,0,0,0,0,0,0.3385,0.3395,0.348,0.3443,0.3481,0.3448,0.3484,0.3567,0.3761,0.381,0.3901,0.3938,0.4105,0.4158,0.4092,0.4234,0.4257,0.4273,0.4118,0.412,0.412,0.4119,0.4051,0,0,0,0,0,0.3426,0.3483,0.3469,0.3456,0.3471,0.3534,0.3562,0.3614,0.3695,0.3792,0.3891,0.4026,0.4149,0.4196,0.4323,0.439,0.445,0.4396,0.4396,0.4394,0.4426,0.4549,0.4559,0.4451,0.4451,0.4451,0,0,0.3387,0.3408,0.3432,0.3471,0.3508,0.3527,0.3573,0.3597,0.3649,0.3784,0.3937,0.4064,0.4197,0.4286,0.4355,0.4322,0.4443,0.4407,0.4403,0.4437,0.456,0.457,0.4578,0.4458,0.4457,0.4456,0,0,0.3303,0.3389,0.3434,0.3481,0.3532,0.3557,0.359,0.3634,0.3724,0.3852,0.3975,0.4103,0.426,0.4318,0.4374,0.4469,0.4485,0.4505,0.4433,0.4549,0.4557,0.4564,0.4552,0.456,0.4445,0.4444,0.4444,0,0.3291,0.3338,0.3428,0.3468,0.3484,0.3581,0.3604,0.3678,0.3792,0.3869,0.3893,0.4182,0.4257,0.438,0.4391,0.445,0.4509,0.4384,0.4537,0.4547,0.4558,0.4545,0.4556,0.4437,0.4438,0.4439,0.444,0,0.3251,0.3322,0.3309,0.3448,0.3494,0.3503,0.3567,0.3672,0.3768,0.3838,0.4026,0.4136,0.4308,0.4305,0.436,0.447,0.4481,0.455,0.4497,0.4556,0.454,0.4554,0.4427,0.443,0.4432,0.4434,0,0,0.3137,0.328,0.3292,0.3382,0.3496,0.3505,0.3591,0.3702,0.3794,0.3902,0.4012,0.4156,0.4254,0.4335,0.4403,0.4436,0.4479,0.4501,0.451,0.4418,0.4669,0.444,0.4433,0.4585,0.459,0.4593,0.4585,0,0.3117,0.3185,0.3265,0.3341,0.3386,0.3509,0.3577,0.3701,0.3811,0.3937,0.4054,0.42,0.4251,0.4316,0.4382,0.4538,0.4533,0.4471,0.4694,0.4698,0.4431,0.4449,0.4173,0.4127,0.4599,0.4602,0.4603,0,0.3086,0.3152,0.3208,0.3353,0.3383,0.3439,0.3607,0.3683,0.3871,0.3964,0.4124,0.4247,0.4382,0.4383,0.4608,0.4587,0.4624,0.4661,0.4664,0.4539,0.45,0.4181,0.4137,0.4628,0.4626,0.4624,0.4623,0,0.3,0.3117,0.3174,0.3217,0.337,0.3438,0.3535,0.3709,0.3794,0.3996,0.4084,0.4299,0.4424,0.4554,0.4673,0.4671,0.486,0.4868,0.4661,0.464,0.4495,0.4455,0.4969,0.497,0.497,0.497,0.497,0,0.2948,0.2996,0.3148,0.3179,0.3256,0.3398,0.35,0.3628,0.3808,0.3927,0.4114,0.424,0.4493,0.4634,0.4697,0.473,0.4903,0.4652,0.4647,0.4416,0.4371,0.4919,0.4914,0.4969,0.4969,0.4969,0.4969,0,0.2834,0.2933,0.3,0.3164,0.321,0.3272,0.3447,0.353,0.3728,0.3882,0.3948,0.4251,0.447,0.4616,0.4817,0.4742,0.478,0.4722,0.4357,0.4307,0.4449,0.4436,0.4474,0.4467,0.446,0.4455,0.445,0,0.278,0.2805,0.2946,0.2973,0.3046,0.3157,0.3228,0.3451,0.3543,0.388,0.3943,0.4219,0.435,0.4514,0.4528,0.4523,0.4679,0.4139,0.4061,0.4418,0.4411,0.4408,0.4404,0.377,0.376,0.3752,0.3746,0,0.2662,0.2718,0.2764,0.2824,0.2899,0.2976,0.3111,0.3169,0.3452,0.3606,0.3846,0.397,0.4178,0.4097,0.4068,0.4034,0.412,0.3963,0.4531,0.3915,0.3748,0.3743,0.3764,0.3675,0.3682,0.3687,0.3691,0.3694,0.2552,0.2548,0.2609,0.2664,0.2724,0.2787,0.2802,0.2968,0.31,0.3275,0.353,0.3628,0.3695,0.3556,0.3472,0.3456,0.37,0.35,0.3529,0.3566,0.3463,0.3293,0.3107,0.3111,0.3114,0.3117,0.3119,0,0.2401,0.242,0.245,0.2485,0.2481,0.2608,0.2699,0.2687,0.2773,0.2981,0.3085,0.2896,0.2826,0.3,0.2854,0.2746,0.2791,0.2645,0.2709,0.278,0.2843,0.2708,0.215,0.2147,0.2144,0.2141,0,0,0.2312,0.2279,0.2314,0.225,0.2281,0.2247,0.2276,0.2302,0.2395,0.2405,0.2479,0.2599,0.2837,0.2424,0.236,0.2256,0.2506,0.2179,0.2962,0.3109,0.3168,0.3341,0.3211,0,0,0,0,0]},{"header":{"parameterUnit":"m.s-1","parameterCategory":2,"la1":30.2991,"la2":30.254,"lo1":-89.0895,"lo2":-89.0444,"dy":0.0017,"dx":0.0017,"nx":28,"ny":28,"refTime":"2023-08-14T03:00:00:Z","depth":"2","parameterNumber":3,"parameterNumberName":"V-component_of_CURRENTS"},"data":[0,0,0,0,0,0,0,0,0,0,0,0,0,0,0,0,0,0,0,0,0,0,0,0,0,0,0,0,0,0,0,0,0,0,0,0,0,0,0,0,0,0,0,0,0,0,0,0,0,0,0,0,0,0,0,0,0,0,-0.0508,-0.0511,0,-0.0841,-0.0845,-0.0849,-0.0989,-0.0988,-0.0987,-0.0986,-0.0934,-0.0934,-0.0933,0,0,0,0,0,0,0,0,0,0,0,0,0,-0.0404,-0.0403,-0.0507,-0.0511,-0.0515,-0.084,-0.0845,-0.085,-0.099,-0.0988,-0.0987,-0.0986,-0.0934,-0.0934,-0.0933,0,0,0,0,0,0,0,0,0,0,0,0,0,-0.0568,-0.0403,-0.0507,-0.062,-0.0633,-0.0839,-0.0845,-0.0852,-0.099,-0.0988,-0.0986,-0.0985,-0.0934,-0.0934,-0.0933,-0.0964,0,0,-0.0932,-0.0931,0,0,0,0,0,0,0,0,-0.0558,-0.0572,-0.0599,-0.0612,-0.0627,-0.0867,-0.079,-0.0868,-0.099,-0.086,-0.0986,-0.0984,-0.0873,-0.0878,-0.0958,-0.0961,-0.0959,-0.0932,-0.0931,-0.0931,-0.0931,0,0,0,0,0,0,0,-0.0546,-0.0561,-0.0645,-0.0603,-0.062,-0.0795,-0.0813,-0.081,-0.0869,-0.0871,-0.0881,-0.091,-0.0879,-0.0958,-0.0956,-0.0958,-0.0932,-0.0931,-0.0931,-0.0931,-0.0767,-0.0763,0,0,0,0,0,0,-0.0474,-0.0548,-0.0634,-0.0654,-0.0582,-0.0796,-0.0817,-0.0796,-0.0878,-0.089,-0.0911,-0.0915,-0.096,-0.0957,-0.0954,-0.0883,-0.0931,-0.0931,-0.093,-0.0771,-0.0766,-0.0761,0,0,0,0,0,0,-0.047,-0.0477,-0.062,-0.0609,-0.0638,-0.0795,-0.0774,-0.0803,-0.0863,-0.0911,-0.0917,-0.0937,-0.0958,-0.0954,-0.0843,-0.0884,-0.093,-0.093,-0.0775,-0.0769,-0.0764,-0.0809,0,0,0,0,0,0,-0.0465,-0.0472,-0.0461,-0.0601,-0.0635,-0.074,-0.0776,-0.0811,-0.0883,-0.0891,-0.0935,-0.0932,-0.0957,-0.0843,-0.0843,-0.0885,-0.0929,-0.0781,-0.0773,-0.0765,-0.0813,-0.0805,-0.0799,0,0,0,0,0,-0.0459,-0.0505,-0.0457,-0.047,-0.0602,-0.0741,-0.0777,-0.089,-0.0884,-0.0932,-0.0864,-0.0929,-0.0797,-0.0837,-0.0839,-0.0882,-0.0784,-0.0775,-0.0766,-0.0816,-0.0807,-0.0799,0,0,0,0,0,0,-0.0527,-0.0525,-0.0477,-0.0529,-0.0596,-0.0762,-0.0858,-0.0873,-0.0883,-0.0852,-0.086,-0.0851,-0.0764,-0.0779,-0.0824,-0.0795,-0.081,-0.08,-0.0847,-0.0839,-0.0832,-0.0815,-0.0929,0,0,0,0,0,-0.05,-0.0498,-0.053,-0.0583,-0.0604,-0.0698,-0.0772,-0.0806,-0.0831,-0.0844,-0.0835,-0.0794,-0.0742,-0.0745,-0.0696,-0.0694,-0.0697,-0.0715,-0.0708,-0.0704,-0.0678,-0.07,-0.0697,-0.0731,-0.0732,-0.0732,0,0,-0.0545,-0.0552,-0.0552,-0.059,-0.0664,-0.0678,-0.0744,-0.0838,-0.0823,-0.082,-0.0785,-0.0743,-0.0708,-0.0679,-0.0654,-0.0704,-0.0688,-0.0692,-0.069,-0.0666,-0.0691,-0.0689,-0.0687,-0.0725,-0.0726,-0.0727,0,0,-0.0627,-0.0623,-0.0608,-0.0635,-0.068,-0.0722,-0.0714,-0.0788,-0.0802,-0.0743,-0.0705,-0.0671,-0.0624,-0.0639,-0.063,-0.0549,-0.0607,-0.0534,-0.056,-0.0583,-0.0583,-0.0583,-0.0582,-0.0582,-0.059,-0.059,-0.059,0,-0.0655,-0.0611,-0.0654,-0.0643,-0.0647,-0.0703,-0.0669,-0.0723,-0.0731,-0.0687,-0.0709,-0.06,-0.0622,-0.0572,-0.0564,-0.0555,-0.0536,-0.0621,-0.0586,-0.0585,-0.0585,-0.0584,-0.0583,-0.0591,-0.0591,-0.0591,-0.059,0,-0.0669,-0.0636,-0.0674,-0.0596,-0.0628,-0.0649,-0.0647,-0.0638,-0.0624,-0.0629,-0.0544,-0.0569,-0.0506,-0.055,-0.055,-0.0546,-0.052,-0.0544,-0.0637,-0.0586,-0.0585,-0.0584,-0.0592,-0.0592,-0.0592,-0.0591,0,0,-0.0665,-0.0651,-0.0643,-0.0562,-0.0571,-0.0582,-0.0554,-0.0509,-0.0422,-0.0482,-0.0385,-0.0428,-0.0436,-0.0418,-0.0451,-0.0538,-0.0576,-0.0552,-0.0553,-0.0601,-0.0584,-0.0629,-0.0632,-0.0593,-0.0593,-0.0592,-0.0589,0,-0.0614,-0.0543,-0.0552,-0.0467,-0.041,-0.042,-0.0372,-0.0342,-0.0316,-0.0245,-0.0332,-0.0252,-0.039,-0.0351,-0.046,-0.047,-0.0568,-0.0571,-0.0578,-0.0577,-0.0668,-0.0632,-0.0588,-0.0585,-0.0588,-0.0588,-0.0588,0,-0.0539,-0.0493,-0.0384,-0.0287,-0.0259,-0.0212,-0.0074,-0.0035,0.001,0.0033,0.0027,0.0,-0.0077,-0.0217,-0.0345,-0.0319,-0.0451,-0.0543,-0.0546,-0.0566,-0.0619,-0.0627,-0.0583,-0.0585,-0.0586,-0.0586,-0.0586,0,-0.0421,-0.0351,-0.0238,-0.0211,-0.0133,-0.0053,0.0003,0.0076,0.0168,0.0228,0.0309,0.0214,0.0215,0.0028,-0.022,-0.0241,-0.0373,-0.0426,-0.0606,-0.0609,-0.0561,-0.0561,-0.0558,-0.0558,-0.0558,-0.0559,-0.0559,0,-0.0314,-0.0218,-0.016,-0.0089,0.0082,0.0095,0.0292,0.0335,0.0441,0.0598,0.0475,0.0558,0.0276,0.0148,-0.0108,-0.034,-0.0296,-0.058,-0.0612,-0.057,-0.0571,-0.0558,-0.0558,-0.0558,-0.0558,-0.0558,-0.0558,0,-0.0186,-0.0161,-0.0014,0.0097,0.0147,0.0285,0.0454,0.0601,0.0677,0.0881,0.0905,0.0845,0.0717,0.039,0.0112,-0.016,-0.0411,-0.0535,-0.0465,-0.049,-0.0646,-0.0647,-0.0655,-0.0657,-0.0658,-0.0659,-0.066,0,-0.0107,-0.0021,0.0131,0.0231,0.0297,0.0477,0.0616,0.0716,0.0881,0.1064,0.1183,0.1107,0.1033,0.0594,0.0151,-0.0279,-0.0379,-0.0547,-0.0624,-0.0626,-0.0656,-0.0655,-0.0654,-0.0564,-0.0564,-0.0564,-0.0564,0,0.0053,0.0105,0.022,0.041,0.0571,0.076,0.0965,0.112,0.1287,0.1441,0.1631,0.1568,0.1167,0.0729,0.009,-0.0198,-0.0468,-0.0561,-0.0556,-0.0565,-0.0545,-0.0573,-0.0574,-0.0565,-0.0565,-0.0565,-0.0565,-0.0565,0.0178,0.0285,0.0423,0.0614,0.0798,0.1049,0.1241,0.1455,0.1715,0.1891,0.1829,0.1721,0.1218,0.0414,-0.0021,-0.0422,-0.0444,-0.0647,-0.0644,-0.0642,-0.065,-0.0637,-0.0672,-0.0673,-0.0673,-0.0674,-0.0674,0,0.032,0.0433,0.0614,0.0853,0.1085,0.1145,0.1481,0.1669,0.1991,0.1998,0.2012,0.1513,0.0962,0.0493,-0.0112,-0.0556,-0.0565,-0.0651,-0.0587,-0.0586,-0.0585,-0.0589,-0.0596,-0.0596,-0.0596,-0.0596,0,0,0.0407,0.059,0.0678,0.1063,0.1242,0.1574,0.1779,0.2039,0.2145,0.2114,0.1978,0.1567,0.1045,0.0595,0.0052,-0.0236,-0.0299,-0.0284,-0.0316,-0.0177,-0.017,-0.0567,-0.057,0,0,0,0,0]}],[{"header":{"parameterUnit":"m.s-1","parameterCategory":2,"la1":30.2991,"la2":30.254,"lo1":-89.0895,"lo2":-89.0444,"dy":0.0017,"dx":0.0017,"nx":28,"ny":28,"refTime":"2023-08-14T03:00:00:Z","depth":"4","parameterNumber":2,"parameterNumberName":"U-component_of_CURRENTS"},"data":[0,0,0,0,0,0,0,0,0,0,0,0,0,0,0,0,0,0,0,0,0,0,0,0,0,0,0,0,0,0,0,0,0,0,0,0,0,0,0,0,0,0,0,0,0,0,0,0,0,0,0,0,0,0,0,0,0,0,0.1132,0.1133,0,0.1138,0.1138,0.1138,0.1209,0.1211,0.1213,0.1215,0.1299,0.1299,0.1299,0,0,0,0,0,0,0,0,0,0,0,0,0,0.1065,0.1066,0.1132,0.1133,0.1133,0.1138,0.1138,0.1138,0.1209,0.1211,0.1214,0.1216,0.1299,0.1299,0.1299,0,0,0,0,0,0,0,0,0,0,0,0,0,0.1081,0.1066,0.1132,0.1172,0.1176,0.1138,0.1138,0.1138,0.1208,0.1211,0.1214,0.1218,0.1299,0.1299,0.1299,0.1236,0,0,0.13,0.13,0,0,0,0,0,0,0,0,0.108,0.1083,0.1166,0.117,0.1174,0.118,0.1145,0.1176,0.1207,0.1191,0.1215,0.1219,0.1266,0.1269,0.1256,0.1239,0.1243,0.13,0.13,0.13,0.13,0,0,0,0,0,0,0,0.1079,0.1082,0.1131,0.1166,0.1171,0.115,0.1156,0.115,0.1209,0.1193,0.1199,0.1205,0.1269,0.1256,0.1259,0.1244,0.13,0.13,0.13,0.1301,0.1383,0.1385,0,0,0,0,0,0,0.1089,0.1082,0.113,0.1131,0.1139,0.1149,0.1156,0.1171,0.1207,0.1217,0.1203,0.1209,0.1254,0.1259,0.1263,0.1359,0.13,0.1301,0.1301,0.1381,0.1383,0.1385,0,0,0,0,0,0,0.1088,0.1094,0.113,0.1109,0.1113,0.1148,0.1163,0.117,0.1193,0.1215,0.1225,0.1225,0.1256,0.1262,0.1323,0.1357,0.1301,0.1301,0.1378,0.1382,0.1384,0.1444,0,0,0,0,0,0,0.1086,0.1093,0.111,0.111,0.1115,0.1145,0.1161,0.1168,0.1192,0.1201,0.1236,0.1245,0.1259,0.1323,0.1323,0.1357,0.1301,0.1376,0.138,0.1383,0.144,0.1449,0.1457,0,0,0,0,0,0.1084,0.1088,0.1111,0.1117,0.1136,0.1146,0.1146,0.1177,0.119,0.1207,0.1253,0.1246,0.1347,0.1324,0.1324,0.1359,0.1374,0.1379,0.1383,0.1436,0.1447,0.1456,0,0,0,0,0,0,0.1062,0.1095,0.1121,0.1136,0.1161,0.1161,0.1159,0.1183,0.1222,0.1241,0.1263,0.1275,0.1346,0.1339,0.1313,0.1397,0.1361,0.1366,0.1401,0.1412,0.142,0.1449,0.1301,0,0,0,0,0,0.1066,0.1085,0.1114,0.1129,0.1131,0.1147,0.1154,0.1188,0.1217,0.1237,0.1286,0.1324,0.1351,0.1375,0.1406,0.1432,0.1435,0.1459,0.1467,0.1474,0.1501,0.1514,0.1526,0.14,0.14,0.14,0,0,0.1052,0.1081,0.1086,0.1126,0.1129,0.1147,0.1159,0.1181,0.1233,0.1237,0.1331,0.1358,0.1368,0.1427,0.1455,0.1432,0.1516,0.148,0.1486,0.1509,0.152,0.1532,0.1543,0.1403,0.1403,0.1402,0,0,0.1038,0.1063,0.1076,0.1105,0.1145,0.1153,0.1169,0.1214,0.127,0.1346,0.1373,0.1434,0.1478,0.151,0.1517,0.1582,0.1564,0.1586,0.1647,0.1659,0.1669,0.1678,0.1711,0.1722,0.1585,0.1585,0.1585,0,0.1029,0.1063,0.1079,0.111,0.1142,0.116,0.1194,0.123,0.1317,0.1383,0.1399,0.1509,0.1519,0.1577,0.1615,0.1602,0.1611,0.1601,0.1669,0.1678,0.1686,0.1717,0.1729,0.1589,0.1588,0.1588,0.1587,0,0.1036,0.1072,0.1071,0.1126,0.116,0.1186,0.1248,0.1314,0.1379,0.1449,0.1571,0.1601,0.1679,0.1675,0.1664,0.1732,0.1722,0.1679,0.1638,0.1702,0.1731,0.1742,0.1593,0.1592,0.1591,0.159,0,0,0.0995,0.1065,0.1072,0.1118,0.1186,0.1214,0.1293,0.1387,0.1459,0.1569,0.1682,0.1741,0.1796,0.181,0.1809,0.1813,0.1875,0.1779,0.1778,0.1806,0.1925,0.1815,0.1817,0.1836,0.1838,0.1839,0.1926,0,0.1001,0.1059,0.1112,0.1177,0.12,0.1277,0.1354,0.1459,0.1546,0.1665,0.1737,0.184,0.1832,0.1879,0.1893,0.1884,0.1907,0.1858,0.1866,0.1868,0.1755,0.1826,0.1846,0.1934,0.1937,0.1939,0.194,0,0.0995,0.1042,0.1108,0.1226,0.1248,0.131,0.1444,0.1527,0.1675,0.1758,0.1875,0.1948,0.2039,0.199,0.2046,0.2016,0.1999,0.197,0.1971,0.1858,0.1778,0.1856,0.196,0.1958,0.1957,0.1955,0.1954,0,0.0947,0.1046,0.1106,0.1145,0.1267,0.135,0.143,0.1571,0.1672,0.1833,0.1916,0.204,0.212,0.2121,0.2128,0.2094,0.2147,0.2084,0.1976,0.1969,0.2013,0.2002,0.2115,0.2115,0.2115,0.2115,0.2114,0,0.0926,0.0976,0.1097,0.1131,0.1235,0.1348,0.1487,0.157,0.1733,0.1847,0.1978,0.206,0.2153,0.221,0.2174,0.213,0.2202,0.2018,0.1987,0.2039,0.203,0.2021,0.2009,0.2118,0.2117,0.2116,0.2116,0,0.0854,0.0927,0.1004,0.1153,0.1208,0.129,0.1505,0.1577,0.1746,0.1885,0.1956,0.2123,0.2191,0.2251,0.2264,0.219,0.2143,0.2102,0.2201,0.217,0.1951,0.1941,0.2002,0.1999,0.1997,0.1994,0.1993,0,0.0818,0.0847,0.0995,0.1044,0.1121,0.1271,0.1345,0.1546,0.1636,0.1891,0.1928,0.2101,0.2189,0.2147,0.2186,0.2161,0.2109,0.2099,0.1992,0.1977,0.1941,0.1936,0.193,0.1988,0.1988,0.1987,0.1986,0,0.0744,0.0806,0.0866,0.0964,0.1051,0.1167,0.1315,0.1385,0.1613,0.1772,0.1895,0.1972,0.2048,0.2079,0.2097,0.2048,0.2111,0.207,0.2073,0.1973,0.1961,0.1926,0.1924,0.1977,0.1978,0.1979,0.198,0,0.0683,0.0708,0.0787,0.0879,0.097,0.1046,0.1154,0.1289,0.1422,0.171,0.1737,0.1887,0.2039,0.2019,0.2009,0.1995,0.1941,0.1858,0.1872,0.1883,0.1797,0.176,0.1712,0,0,0,0,0,0.0612,0.0633,0.0697,0.0792,0.0877,0.0944,0.1111,0.1226,0.1448,0.1488,0.1639,0.1706,0.1772,0.1832,0.1786,0.1909,0.1917,0.1844,0.1821,0.1927,0.1937,0.1843,0,0,0,0,0,0,0.056,0.06,0.0652,0.0697,0.0745,0.0836,0.0935,0.1081,0.1153,0.1378,0.1415,0.1586,0.1651,0.1769,0.1743,0.1761,0.171,0.1941,0.1937,0.1921,0.193,0.1939,0.1846,0,0,0,0,0]},{"header":{"parameterUnit":"m.s-1","parameterCategory":2,"la1":30.2991,"la2":30.254,"lo1":-89.0895,"lo2":-89.0444,"dy":0.0017,"dx":0.0017,"nx":28,"ny":28,"refTime":"2023-08-14T03:00:00:Z","depth":"4","parameterNumber":3,"parameterNumberName":"V-component_of_CURRENTS"},"data":[0,0,0,0,0,0,0,0,0,0,0,0,0,0,0,0,0,0,0,0,0,0,0,0,0,0,0,0,0,0,0,0,0,0,0,0,0,0,0,0,0,0,0,0,0,0,0,0,0,0,0,0,0,0,0,0,0,0,-0.0039,-0.0039,0,-0.0075,-0.0076,-0.0077,-0.0125,-0.0126,-0.0127,-0.0127,-0.026,-0.0263,-0.0266,0,0,0,0,0,0,0,0,0,0,0,0,0,-0.003,-0.003,-0.0039,-0.0039,-0.0039,-0.0075,-0.0076,-0.0077,-0.0125,-0.0126,-0.0127,-0.0128,-0.0259,-0.0263,-0.0266,0,0,0,0,0,0,0,0,0,0,0,0,0,-0.0048,-0.003,-0.0039,-0.0067,-0.007,-0.0075,-0.0076,-0.0077,-0.0125,-0.0126,-0.0127,-0.0128,-0.0258,-0.0262,-0.0267,-0.0273,0,0,-0.028,-0.0282,0,0,0,0,0,0,0,0,-0.0047,-0.0049,-0.0063,-0.0065,-0.0068,-0.0096,-0.0122,-0.0147,-0.0125,-0.0105,-0.0127,-0.0129,-0.0213,-0.0221,-0.0226,-0.0279,-0.0285,-0.028,-0.0283,-0.0285,-0.0286,0,0,0,0,0,0,0,-0.0046,-0.0048,-0.0055,-0.0063,-0.0066,-0.0085,-0.0088,-0.0126,-0.0156,-0.0107,-0.0111,-0.0112,-0.0215,-0.0221,-0.023,-0.0287,-0.028,-0.0284,-0.0287,-0.0289,-0.0411,-0.0411,0,0,0,0,0,0,-0.0036,-0.0046,-0.0054,-0.0056,-0.0059,-0.0084,-0.0088,-0.0087,-0.0153,-0.0163,-0.0111,-0.0114,-0.0213,-0.0224,-0.0235,-0.0274,-0.0285,-0.0289,-0.0291,-0.041,-0.0411,-0.0412,0,0,0,0,0,0,-0.0036,-0.0037,-0.0052,-0.0051,-0.0054,-0.0082,-0.0081,-0.0087,-0.0099,-0.0155,-0.0167,-0.0117,-0.0215,-0.0229,-0.0282,-0.0278,-0.0291,-0.0295,-0.0409,-0.041,-0.0411,-0.0335,0,0,0,0,0,0,-0.0036,-0.0036,-0.0039,-0.005,-0.0054,-0.0051,-0.008,-0.0087,-0.0097,-0.0102,-0.0164,-0.0177,-0.0217,-0.0275,-0.0286,-0.0285,-0.0298,-0.0409,-0.041,-0.0411,-0.0336,-0.0333,-0.033,0,0,0,0,0,-0.0035,-0.0018,-0.0039,-0.0041,-0.0055,-0.005,-0.0054,-0.0079,-0.0096,-0.0095,-0.015,-0.0175,-0.0291,-0.0279,-0.0292,-0.0291,-0.0408,-0.0409,-0.0411,-0.0338,-0.0334,-0.033,0,0,0,0,0,0,-0.0009,-0.0022,-0.0045,-0.0033,-0.0045,-0.0058,-0.0049,-0.0075,-0.0113,-0.0125,-0.0182,-0.0199,-0.0251,-0.0283,-0.0268,-0.0334,-0.0354,-0.0358,-0.0294,-0.0291,-0.0288,-0.0285,-0.0302,0,0,0,0,0,-0.0007,0.0001,-0.002,-0.0009,-0.0009,-0.0033,-0.0037,-0.0059,-0.0089,-0.0106,-0.0153,-0.021,-0.0264,-0.0286,-0.0341,-0.0365,-0.0411,-0.0377,-0.0373,-0.037,-0.0379,-0.0439,-0.0441,-0.0416,-0.0416,-0.0416,0,0,0.0007,0.0003,0.0005,-0.0004,-0.0008,0.0001,-0.0037,-0.0036,-0.0047,-0.0116,-0.0145,-0.0206,-0.0273,-0.0312,-0.0336,-0.0337,-0.0401,-0.0372,-0.0368,-0.038,-0.044,-0.0443,-0.0445,-0.0417,-0.0417,-0.0417,0,0,0.0054,0.0039,0.0059,0.0053,0.0041,0.0028,0.0029,0.0004,-0.0026,-0.0064,-0.0125,-0.0186,-0.0248,-0.0301,-0.0334,-0.0346,-0.0391,-0.0357,-0.0325,-0.0381,-0.0384,-0.0386,-0.0438,-0.0445,-0.0342,-0.0342,-0.0342,0,0.0065,0.0086,0.0066,0.0085,0.0084,0.0045,0.0061,0.0035,-0.0014,-0.0047,-0.0067,-0.0193,-0.0246,-0.0308,-0.0313,-0.0338,-0.0374,-0.0326,-0.0375,-0.0379,-0.0383,-0.0435,-0.0445,-0.0339,-0.0339,-0.0339,-0.034,0,0.0124,0.0132,0.0155,0.0159,0.0154,0.0167,0.0129,0.0104,0.0062,0.0017,-0.0066,-0.0148,-0.0223,-0.0245,-0.0282,-0.0335,-0.0354,-0.037,-0.0377,-0.038,-0.0436,-0.0447,-0.0334,-0.0335,-0.0336,-0.0337,0,0,0.0161,0.0187,0.019,0.0199,0.0188,0.0194,0.0178,0.014,0.0117,0.0044,-0.0004,-0.0102,-0.0161,-0.0205,-0.0264,-0.0309,-0.0365,-0.034,-0.0344,-0.0377,-0.0486,-0.0442,-0.045,-0.0379,-0.0381,-0.0383,-0.0509,0,0.0206,0.0255,0.0248,0.0284,0.0305,0.0262,0.0255,0.0206,0.0146,0.0089,-0.0019,-0.0086,-0.0139,-0.0177,-0.0236,-0.035,-0.0393,-0.0329,-0.0492,-0.0497,-0.0445,-0.0461,-0.0388,-0.0518,-0.0521,-0.0523,-0.0524,0,0.0252,0.0279,0.0325,0.0336,0.0341,0.0353,0.0318,0.0301,0.0208,0.0157,0.0064,-0.0028,-0.0138,-0.0167,-0.0351,-0.0305,-0.0388,-0.0462,-0.0469,-0.0465,-0.0474,-0.0521,-0.0545,-0.0544,-0.0542,-0.0541,-0.0539,0,0.0285,0.0324,0.0363,0.037,0.0382,0.0383,0.0381,0.0316,0.0298,0.0195,0.0159,0.0008,-0.007,-0.0205,-0.0372,-0.0363,-0.0561,-0.057,-0.0607,-0.0606,-0.064,-0.0636,-0.0678,-0.0678,-0.0678,-0.0678,-0.0677,0,0.0325,0.0354,0.0385,0.0409,0.0449,0.043,0.0447,0.0412,0.0359,0.0335,0.0199,0.0135,-0.008,-0.0226,-0.0367,-0.0527,-0.0562,-0.0613,-0.0637,-0.0604,-0.0595,-0.0647,-0.0642,-0.0682,-0.0681,-0.068,-0.068,0,0.0347,0.0373,0.0421,0.0453,0.0472,0.0493,0.0524,0.0518,0.0468,0.0428,0.0399,0.0216,0.0022,-0.0186,-0.042,-0.0507,-0.067,-0.0707,-0.066,-0.0678,-0.0679,-0.0668,-0.0773,-0.0772,-0.0772,-0.0772,-0.0771,0,0.0363,0.0396,0.0462,0.0496,0.0517,0.0561,0.0588,0.0577,0.0569,0.0476,0.0446,0.0258,0.0121,-0.0187,-0.0396,-0.0659,-0.0676,-0.0748,-0.0715,-0.0677,-0.069,-0.068,-0.0671,-0.0771,-0.0771,-0.0771,-0.0771,0,0.0392,0.0418,0.0456,0.0534,0.0582,0.0636,0.0669,0.0682,0.065,0.0612,0.0485,0.0306,0.0091,-0.017,-0.0367,-0.0552,-0.0703,-0.0744,-0.0746,-0.0716,-0.0675,-0.0687,-0.0678,-0.0769,-0.0769,-0.077,-0.077,0,0.0407,0.0436,0.0495,0.0556,0.0623,0.067,0.0699,0.0688,0.0689,0.0593,0.0551,0.031,0.0163,-0.0114,-0.0304,-0.0479,-0.0515,-0.0544,-0.0557,-0.056,-0.0453,-0.0368,-0.0394,0,0,0,0,0,0.0416,0.0453,0.0512,0.0575,0.0637,0.0678,0.0726,0.0739,0.0726,0.0654,0.061,0.0411,0.0114,-0.0039,-0.0206,-0.0299,-0.0547,-0.0496,-0.0587,-0.0762,-0.0763,-0.0668,0,0,0,0,0,0,0.0422,0.048,0.0509,0.0581,0.0621,0.0689,0.0724,0.0717,0.0678,0.0637,0.0469,0.0395,0.0088,0.0201,-0.0208,-0.0264,-0.0334,-0.0643,-0.0645,-0.0761,-0.0762,-0.0764,-0.0666,0,0,0,0,0]}]]